DLH6RF EDDM-EGBB

Flight info

Callsign DLH6RF
Flight time 1h 34m
Altitude 34000
Route GIVMI1N GIVMI Y101 INBED DCT REKDI DCT LOHRE DCT BUB L608 DENUT L610 HEMEL
Aircraft A320/M-SDE2E3FGIJ1LORWXYZ/HB1

Departure

Time 2026-05-04 05:41
Airport Munich Airport (EDDM)

Arrival

Time 2026-05-04 07:16
Airport Birmingham Airport (EGBB)
Time Latitude Longitude Altitude Speed Heading
2026-05-04 05:12 48.35643 11.79268 1486 ft 0 kts 263°
2026-05-04 05:31 48.35622 11.79425 1473 ft 0 kts 354°
2026-05-04 05:33 48.35627 11.79424 1473 ft 3 kts 354°
2026-05-04 05:33 48.35669 11.79417 1481 ft 9 kts 353°
2026-05-04 05:33 48.35742 11.79405 1479 ft 10 kts 354°
2026-05-04 05:34 48.35807 11.79394 1481 ft 9 kts 354°
2026-05-04 05:34 48.35868 11.79384 1485 ft 10 kts 354°
2026-05-04 05:34 48.35947 11.79342 1485 ft 14 kts 348°
2026-05-04 05:34 48.36042 11.79324 1478 ft 13 kts 355°
2026-05-04 05:35 48.36100 11.79410 1483 ft 14 kts 82°
2026-05-04 05:35 48.36112 11.79564 1485 ft 15 kts 84°
2026-05-04 05:35 48.36122 11.79712 1480 ft 14 kts 83°
2026-05-04 05:35 48.36135 11.79861 1485 ft 14 kts 83°
2026-05-04 05:36 48.36145 11.79995 1483 ft 13 kts 84°
2026-05-04 05:36 48.36157 11.80151 1485 ft 16 kts 84°
2026-05-04 05:36 48.36170 11.80321 1481 ft 16 kts 84°
2026-05-04 05:36 48.36184 11.80500 1485 ft 18 kts 83°
2026-05-04 05:37 48.36199 11.80695 1485 ft 20 kts 83°
2026-05-04 05:37 48.36215 11.80908 1481 ft 22 kts 84°
2026-05-04 05:37 48.36233 11.81141 1485 ft 23 kts 84°
2026-05-04 05:38 48.36269 11.81605 1482 ft 22 kts 83°
2026-05-04 05:38 48.36284 11.81820 1481 ft 20 kts 84°
2026-05-04 05:38 48.36302 11.82024 1485 ft 19 kts 84°
2026-05-04 05:38 48.36344 11.82157 1482 ft 14 kts 19°
2026-05-04 05:39 48.36430 11.82142 1478 ft 12 kts 353°
2026-05-04 05:39 48.36595 11.82110 1481 ft 13 kts 345°
2026-05-04 05:39 48.36671 11.82058 1473 ft 10 kts 324°
2026-05-04 05:40 48.36678 11.81972 1477 ft 16 kts 262°
2026-05-04 05:40 48.36633 11.81399 1485 ft 90 kts 263°
2026-05-04 05:40 48.36537 11.80149 1478 ft 148 kts 263°
2026-05-04 05:41 48.36401 11.78418 1671 ft 179 kts 262°
2026-05-04 05:41 48.36247 11.76513 2242 ft 188 kts 263°
2026-05-04 05:41 48.36103 11.74562 3060 ft 186 kts 266°
2026-05-04 05:41 48.35966 11.72619 3659 ft 193 kts 265°
2026-05-04 05:42 48.35806 11.70493 3962 ft 216 kts 264°
2026-05-04 05:42 48.35800 11.68159 4353 ft 233 kts 285°
2026-05-04 05:42 48.36511 11.65919 4900 ft 246 kts 302°
2026-05-04 05:42 48.37457 11.63635 5427 ft 265 kts 302°
2026-05-04 05:43 48.38547 11.60997 6396 ft 270 kts 301°
2026-05-04 05:43 48.39540 11.58576 7263 ft 274 kts 300°
2026-05-04 05:43 48.40542 11.56115 8107 ft 278 kts 300°
2026-05-04 05:45 48.50660 11.41764 12926 ft 346 kts 348°
2026-05-04 05:45 48.53052 11.41138 13630 ft 351 kts 348°
2026-05-04 05:47 48.70398 11.35814 18215 ft 375 kts 334°
2026-05-04 05:47 48.72677 11.33884 18768 ft 376 kts 323°
2026-05-04 05:47 48.74853 11.31659 19356 ft 379 kts 324°
2026-05-04 05:48 48.77046 11.29432 19962 ft 380 kts 324°
2026-05-04 05:48 48.79258 11.27199 20555 ft 383 kts 324°
2026-05-04 05:48 48.81485 11.24956 21149 ft 385 kts 324°
2026-05-04 05:48 48.83747 11.22749 21728 ft 389 kts 329°
2026-05-04 05:49 48.86223 11.21040 22298 ft 394 kts 339°
2026-05-04 05:49 48.88835 11.19719 22871 ft 397 kts 340°
2026-05-04 05:49 48.91466 11.18395 23440 ft 400 kts 339°
2026-05-04 05:49 48.94116 11.17055 23928 ft 403 kts 339°
2026-05-04 05:51 49.13066 11.07393 26943 ft 419 kts 338°
2026-05-04 05:51 49.15842 11.05968 27329 ft 422 kts 338°
2026-05-04 05:52 49.18631 11.04537 27717 ft 424 kts 338°
2026-05-04 05:52 49.21431 11.03101 28112 ft 426 kts 338°
2026-05-04 05:52 49.24255 11.01652 28496 ft 429 kts 338°
2026-05-04 05:52 49.27088 11.00194 28852 ft 431 kts 338°
2026-05-04 05:53 49.29944 10.98722 29216 ft 434 kts 338°
2026-05-04 05:54 49.45687 10.81047 31255 ft 430 kts 306°
2026-05-04 05:55 49.47574 10.77468 31522 ft 432 kts 305°
2026-05-04 05:55 49.49469 10.73873 31846 ft 432 kts 305°
2026-05-04 05:55 49.51361 10.70284 32218 ft 431 kts 305°
2026-05-04 05:55 49.53244 10.66709 32599 ft 429 kts 305°
2026-05-04 05:56 49.55122 10.63142 32978 ft 428 kts 305°
2026-05-04 05:56 49.56989 10.59582 33371 ft 426 kts 305°
2026-05-04 05:56 49.58842 10.56035 33761 ft 425 kts 304°
2026-05-04 05:56 49.60688 10.52491 34007 ft 424 kts 304°
2026-05-04 05:57 49.64733 10.44717 34028 ft 408 kts 304°
2026-05-04 05:57 49.68118 10.37717 34033 ft 411 kts 300°
2026-05-04 05:58 49.71343 10.30233 34031 ft 426 kts 299°
2026-05-04 05:58 49.74632 10.22521 34044 ft 439 kts 300°
2026-05-04 05:59 49.78085 10.14617 34020 ft 446 kts 300°
2026-05-04 05:59 49.81585 10.06678 34021 ft 447 kts 300°
2026-05-04 06:00 49.85078 9.98719 34024 ft 446 kts 300°
2026-05-04 06:00 49.88548 9.90772 34020 ft 445 kts 300°
2026-05-04 06:01 49.91997 9.82819 34018 ft 444 kts 300°
2026-05-04 06:03 50.05712 9.50873 34007 ft 443 kts 296°
2026-05-04 06:05 50.12300 9.19470 33996 ft 438 kts 283°
2026-05-04 06:05 50.14039 9.10370 34012 ft 438 kts 283°
2026-05-04 06:06 50.15756 9.01273 34017 ft 437 kts 282°
2026-05-04 06:06 50.17456 8.92172 34022 ft 437 kts 282°
2026-05-04 06:07 50.19156 8.83075 34023 ft 436 kts 282°
2026-05-04 06:07 50.20847 8.73983 34022 ft 436 kts 282°
2026-05-04 06:08 50.22249 8.66433 34019 ft 436 kts 282°
2026-05-04 06:08 50.23930 8.57332 34015 ft 435 kts 282°
2026-05-04 06:09 50.25601 8.48244 34005 ft 435 kts 282°
2026-05-04 06:11 50.32203 8.11824 34006 ft 435 kts 282°
2026-05-04 06:13 50.38686 7.75400 34010 ft 433 kts 281°
2026-05-04 06:14 50.44226 7.43587 34008 ft 432 kts 281°
2026-05-04 06:15 50.45793 7.34550 34016 ft 432 kts 281°
2026-05-04 06:15 50.47353 7.25437 34006 ft 433 kts 281°
2026-05-04 06:16 50.48907 7.16317 34004 ft 433 kts 281°
2026-05-04 06:16 50.50456 7.07187 33999 ft 432 kts 281°
2026-05-04 06:17 50.51997 6.98054 33995 ft 432 kts 281°
2026-05-04 06:17 50.53535 6.88908 33999 ft 433 kts 280°
2026-05-04 06:18 50.55064 6.79758 33985 ft 433 kts 280°
2026-05-04 06:20 50.61114 6.43044 34004 ft 433 kts 280°
2026-05-04 06:21 50.64834 6.20083 33990 ft 433 kts 279°
2026-05-04 06:22 50.66303 6.10890 33992 ft 433 kts 279°
2026-05-04 06:25 50.76342 5.46901 34008 ft 427 kts 279°
2026-05-04 06:26 50.77738 5.37794 34006 ft 427 kts 278°
2026-05-04 06:26 50.79126 5.28668 34003 ft 427 kts 278°
2026-05-04 06:27 50.82569 5.05858 34009 ft 426 kts 278°
2026-05-04 06:28 50.83929 4.96750 34004 ft 425 kts 278°
2026-05-04 06:28 50.85285 4.87646 34001 ft 425 kts 278°
2026-05-04 06:29 50.86632 4.78542 33997 ft 425 kts 278°
2026-05-04 06:29 50.87969 4.69442 34006 ft 424 kts 278°
2026-05-04 06:30 50.89296 4.60337 34000 ft 424 kts 278°
2026-05-04 06:30 50.91170 4.51441 33990 ft 434 kts 293°
2026-05-04 06:31 50.94318 4.43219 34012 ft 436 kts 295°
2026-05-04 06:31 50.97452 4.35061 34007 ft 436 kts 295°
2026-05-04 06:33 51.09994 4.02067 33972 ft 436 kts 295°
2026-05-04 06:34 51.13107 3.93813 33959 ft 436 kts 295°
2026-05-04 06:34 51.16230 3.85519 33954 ft 436 kts 295°
2026-05-04 06:36 51.25604 3.50850 33950 ft 422 kts 277°
2026-05-04 06:37 51.26815 3.41690 33955 ft 422 kts 277°
2026-05-04 06:37 51.28011 3.32513 33983 ft 422 kts 276°
2026-05-04 06:38 51.29165 3.23504 33989 ft 423 kts 276°
2026-05-04 06:40 51.33672 2.87884 33979 ft 422 kts 276°
2026-05-04 06:40 51.34627 2.80148 33987 ft 422 kts 276°
2026-05-04 06:41 51.35484 2.73179 33969 ft 423 kts 276°
2026-05-04 06:41 51.36130 2.67945 33967 ft 423 kts 276°
2026-05-04 06:42 51.36924 2.61510 33965 ft 423 kts 276°
2026-05-04 06:44 51.41139 2.26741 33962 ft 426 kts 276°
2026-05-04 06:44 51.42249 2.17415 33958 ft 427 kts 276°
2026-05-04 06:45 51.43365 2.08065 33970 ft 428 kts 276°
2026-05-04 06:45 51.44467 1.98685 33972 ft 428 kts 276°
2026-05-04 06:46 51.45614 1.89309 33989 ft 429 kts 277°
2026-05-04 06:46 51.46770 1.79915 33978 ft 430 kts 276°
2026-05-04 06:48 51.51064 1.42093 34005 ft 432 kts 276°
2026-05-04 06:50 51.55272 1.04086 33997 ft 433 kts 276°
2026-05-04 06:51 51.56310 0.94548 34005 ft 434 kts 276°
2026-05-04 06:51 51.57339 0.84972 33998 ft 436 kts 276°
2026-05-04 06:52 51.58365 0.75344 33983 ft 437 kts 276°
2026-05-04 06:52 51.59387 0.65689 33984 ft 438 kts 276°
2026-05-04 06:53 51.60405 0.56027 33688 ft 434 kts 276°
2026-05-04 06:53 51.60904 0.51312 33347 ft 422 kts 276°
2026-05-04 06:53 51.61389 0.46701 32665 ft 414 kts 275°
2026-05-04 06:54 51.61860 0.42187 31963 ft 401 kts 275°
2026-05-04 06:54 51.62313 0.37857 31499 ft 385 kts 274°
2026-05-04 06:54 51.62747 0.33691 31025 ft 370 kts 273°
2026-05-04 06:54 51.63162 0.29683 30588 ft 356 kts 272°
2026-05-04 06:55 51.63557 0.25810 30180 ft 349 kts 272°
2026-05-04 06:55 51.63941 0.21963 29717 ft 347 kts 271°
2026-05-04 06:55 51.64321 0.18149 29316 ft 342 kts 272°
2026-05-04 06:55 51.64891 0.14425 28926 ft 345 kts 282°
2026-05-04 06:56 51.65827 0.10857 28536 ft 345 kts 287°
2026-05-04 06:57 51.72566 -0.13118 25749 ft 331 kts 289°
2026-05-04 06:58 51.73202 -0.15396 25461 ft 330 kts 289°
2026-05-04 06:58 51.74137 -0.18760 25039 ft 328 kts 289°
2026-05-04 06:58 51.75067 -0.22112 24612 ft 327 kts 289°
2026-05-04 06:58 51.75986 -0.25421 24174 ft 327 kts 290°
2026-05-04 06:59 51.76928 -0.28811 23726 ft 327 kts 290°
2026-05-04 06:59 51.77857 -0.32161 23244 ft 327 kts 290°
2026-05-04 06:59 51.78784 -0.35500 22773 ft 325 kts 290°
2026-05-04 06:59 51.79780 -0.38766 22348 ft 325 kts 298°
2026-05-04 07:01 51.93168 -0.54200 18879 ft 349 kts 327°
2026-05-04 07:01 51.95282 -0.56258 18357 ft 350 kts 327°
2026-05-04 07:02 51.97350 -0.58273 17797 ft 343 kts 327°
2026-05-04 07:02 51.99367 -0.60236 17300 ft 334 kts 327°
2026-05-04 07:02 52.01334 -0.62154 16815 ft 326 kts 327°
2026-05-04 07:02 52.03265 -0.64043 16372 ft 322 kts 327°
2026-05-04 07:03 52.05148 -0.65893 15917 ft 321 kts 326°
2026-05-04 07:03 52.07064 -0.67780 15438 ft 323 kts 327°
2026-05-04 07:03 52.08987 -0.69675 14963 ft 325 kts 327°
2026-05-04 07:03 52.10923 -0.71584 14485 ft 326 kts 327°
2026-05-04 07:04 52.12869 -0.73505 14006 ft 328 kts 327°
2026-05-04 07:04 52.14822 -0.75435 13477 ft 326 kts 327°
2026-05-04 07:04 52.16717 -0.77307 12998 ft 313 kts 327°
2026-05-04 07:04 52.18552 -0.79119 12543 ft 304 kts 327°
2026-05-04 07:05 52.20350 -0.80893 12098 ft 301 kts 327°
2026-05-04 07:05 52.22132 -0.82661 11660 ft 298 kts 325°
2026-05-04 07:05 52.23694 -0.84825 11223 ft 293 kts 309°
2026-05-04 07:05 52.24828 -0.87543 10788 ft 289 kts 294°
2026-05-04 07:06 52.25919 -0.93808 9935 ft 288 kts 281°
2026-05-04 07:06 52.26355 -0.96990 9530 ft 286 kts 281°
2026-05-04 07:06 52.26790 -1.00147 9111 ft 284 kts 281°
2026-05-04 07:07 52.27221 -1.03270 8669 ft 280 kts 282°
2026-05-04 07:08 52.30071 -1.24285 5843 ft 264 kts 282°
2026-05-04 07:09 52.30465 -1.27200 5457 ft 262 kts 282°
2026-05-04 07:09 52.30859 -1.30113 5075 ft 263 kts 283°
2026-05-04 07:09 52.31250 -1.33026 4680 ft 262 kts 283°
2026-05-04 07:09 52.31635 -1.35926 4289 ft 261 kts 283°
2026-05-04 07:10 52.32001 -1.38820 3906 ft 261 kts 282°
2026-05-04 07:10 52.32360 -1.41732 3522 ft 260 kts 282°
2026-05-04 07:12 52.34432 -1.58805 2790 ft 184 kts 284°
2026-05-04 07:12 52.34686 -1.60868 2718 ft 186 kts 283°
2026-05-04 07:12 52.35112 -1.62833 2635 ft 182 kts 304°
2026-05-04 07:12 52.35941 -1.64325 2452 ft 174 kts 327°
2026-05-04 07:13 52.36935 -1.65441 2228 ft 173 kts 329°
2026-05-04 07:13 52.37934 -1.66542 2022 ft 173 kts 329°
2026-05-04 07:13 52.38924 -1.67637 1772 ft 167 kts 330°
2026-05-04 07:14 52.42347 -1.71432 911 ft 139 kts 328°
2026-05-04 07:14 52.43137 -1.72310 702 ft 135 kts 328°
2026-05-04 07:15 52.43911 -1.73167 508 ft 134 kts 328°
2026-05-04 07:15 52.44667 -1.74017 371 ft 129 kts 330°
2026-05-04 07:15 52.45358 -1.74768 323 ft 103 kts 326°
2026-05-04 07:15 52.45877 -1.75346 318 ft 81 kts 326°
2026-05-04 07:16 52.46256 -1.75768 308 ft 30 kts 327°
2026-05-04 07:16 52.46353 -1.75855 310 ft 13 kts 323°
2026-05-04 07:16 52.46423 -1.75953 309 ft 13 kts 324°
2026-05-04 07:16 52.46505 -1.76044 308 ft 16 kts 328°
2026-05-04 07:17 52.46600 -1.75997 305 ft 18 kts 51°
2026-05-04 07:17 52.46607 -1.75834 306 ft 15 kts 136°
2026-05-04 07:17 52.46514 -1.75728 305 ft 17 kts 145°
2026-05-04 07:17 52.46405 -1.75606 303 ft 21 kts 145°
2026-05-04 07:18 52.46281 -1.75466 304 ft 22 kts 145°
2026-05-04 07:18 52.46146 -1.75320 307 ft 22 kts 146°
2026-05-04 07:18 52.46028 -1.75185 305 ft 21 kts 147°
2026-05-04 07:18 52.45910 -1.75058 306 ft 20 kts 147°
2026-05-04 07:19 52.45792 -1.74926 309 ft 21 kts 146°
2026-05-04 07:19 52.45676 -1.74797 314 ft 19 kts 146°
2026-05-04 07:19 52.45583 -1.74695 320 ft 10 kts 146°
2026-05-04 07:19 52.45538 -1.74645 323 ft 6 kts 146°
2026-05-04 07:20 52.45509 -1.74612 323 ft 7 kts 145°
2026-05-04 07:20 52.45456 -1.74513 323 ft 16 kts 117°
2026-05-04 07:20 52.45404 -1.74343 322 ft 15 kts 115°
2026-05-04 07:20 52.45355 -1.74181 323 ft 17 kts 116°
2026-05-04 07:22 52.45313 -1.73821 324 ft 2 kts 144°
2026-05-04 07:22 52.45304 -1.73811 323 ft 1 kts 145°
2026-05-04 07:23 52.45295 -1.73801 324 ft 2 kts 146°
2026-05-04 07:23 52.45294 -1.73800 324 ft 0 kts 146°
2026-05-04 07:27 52.45295 -1.73800 324 ft 0 kts 146°
2026-05-04 07:30 52.45294 -1.73800 324 ft 0 kts 146°